Change the Weather History Date:

Tuesday, February 18, 2014

  Actual Average Record
Temperature  
Mean Temperature 65 °F -  
Max Temperature 72 °F - - ()
Min Temperature 56 °F - - ()
Growing Degree Days 15 (Base 50)    
Moisture  
Dew Point 51 °F    
Average Humidity 64    
Maximum Humidity 95    
Minimum Humidity 34    
Precipitation  
Precipitation 0.00 in - - ()
Sea Level Pressure  
Sea Level Pressure 30.15 in    
Wind  
Wind Speed 16 mph ()    
Max Wind Speed 25 mph    
Max Gust Speed 31 mph    
Visibility 5.9 miles    
Events      
T = Trace of Precipitation, MM = Missing Value Source: Averaged Metar Reports

Daily Weather History Graph

Daily Weather History Graph

Search for Another Location

Airport or City:

Trip Planner

Search our weather history database for the weather conditions in past years. The results will help you decide how hot, cold, wet, or windy it might be!

Date:

Astronomy

Feb. 18, 2014 Rise Set
Actual Time 6:07 AM AST 5:30 PM AST
Civil Twilight 5:43 AM AST 5:53 PM AST
Nautical Twilight 5:17 AM AST 6:20 PM AST
Astronomical Twilight 4:50 AM AST 6:47 PM AST
Moon 8:34 PM AST (2/18) 7:50 AM AST (2/18)
Length of Visible Light 12h 09m
Length of Day
11h 23m
Waning Gibbous, 89% of the Moon is Illuminated
Feb 18
Waning Gibbous
Feb 22
Last Quarter
Mar 1
New
Mar 8
First Quarter
Mar 16
Full

Hourly Weather History & Observations

Time (AST) Temp. Dew Point Humidity Pressure Visibility Wind Dir Wind Speed Gust Speed Precip Events Conditions
12:58 AM 64.2 °F 58.3 °F 81% 30.09 in 5.6 mi NNW 19.6 mph - N/A   Haze
1:58 AM 63.1 °F 57.2 °F 81% 30.09 in 6.2 mi NNW 16.1 mph - N/A   Scattered Clouds
2:58 AM 63.0 °F 52.5 °F 69% 30.09 in 6.2 mi NNW 18.4 mph - N/A   Partly Cloudy
3:58 AM 60.8 °F 53.1 °F 76% 30.10 in 6.2 mi NW 13.8 mph - N/A   Clear
4:58 AM 59.7 °F 53.1 °F 79% 30.11 in 6.2 mi NW 12.7 mph - N/A   Clear
5:58 AM 59.2 °F 52.5 °F 79% 30.14 in 6.2 mi NNW 13.8 mph - N/A   Clear
6:58 AM 60.8 °F 52.0 °F 73% 30.16 in 6.2 mi NNW 13.8 mph - N/A   Clear
7:58 AM 63.0 °F 54.0 °F 72% 30.17 in 6.2 mi NNW 19.6 mph - N/A   Clear
8:58 AM 66.4 °F 52.2 °F 60% 30.18 in 5.6 mi NNW 24.2 mph - N/A   Widespread Dust
9:58 AM 69.8 °F 50.0 °F 49% 30.18 in 5.6 mi NNW 24.2 mph 29.9 mph N/A   Widespread Dust
10:48 AM 69.8 °F 48.2 °F 46% 30.16 in 5.6 mi NNW 23.0 mph 31.1 mph N/A   Widespread Dust
10:58 AM 70.7 °F 49.3 °F 47% 30.17 in 5.6 mi NNW 21.9 mph 29.9 mph N/A   Widespread Dust
11:58 AM 72.1 °F 42.6 °F 34% 30.15 in 5.6 mi NNW 23.0 mph - N/A   Widespread Dust
12:58 PM 72.1 °F 46.2 °F 40% 30.13 in 5.6 mi NNW 25.3 mph 29.9 mph N/A   Widespread Dust
1:58 PM 71.6 °F 45.9 °F 40% 30.12 in 5.6 mi NNW 23.0 mph 26.5 mph N/A   Widespread Dust
2:58 PM 71.2 °F 48.0 °F 44% 30.11 in 5.6 mi NNW 24.2 mph - N/A   Widespread Dust
3:58 PM 69.3 °F 46.4 °F 44% 30.12 in 5.6 mi NNW 24.2 mph 29.9 mph N/A   Widespread Dust
4:58 PM 67.1 °F 46.6 °F 48% 30.14 in 5.6 mi NNW 20.7 mph - N/A   Widespread Dust
5:58 PM 64.8 °F 48.6 °F 56% 30.15 in 6.2 mi NNW 15.0 mph - N/A   Clear
6:58 PM 63.1 °F 50.9 °F 64% 30.18 in 6.2 mi NNW 11.5 mph - N/A   Clear
7:58 PM 61.5 °F 52.2 °F 71% 30.21 in 6.2 mi NNW 9.2 mph - N/A   Clear
8:58 PM 59.9 °F 52.5 °F 77% 30.21 in 6.2 mi NNW 11.5 mph - N/A   Clear
9:58 PM 59.5 °F 54.1 °F 82% 30.20 in 6.2 mi NNW 11.5 mph - N/A   Clear
10:58 PM 58.1 °F 56.3 °F 94% 30.20 in 6.2 mi NW 9.2 mph - N/A   Clear
11:58 PM 56.7 °F 55.2 °F 95% 30.18 in 6.2 mi NW 6.9 mph - N/A   Clear